This demonstration page uses our WeatherBlox Daily Observations layout. Learn more.

Left ArrowRight Arrow

Hourly Observations for July 12, 2018

Temp ( °F °C ) Dew Point ( °F °C ) Humidity (%) Winds ( mph kmh ) Pressure ( in mb ) Visibility ( mi km ) Precip ( " mm )
12:53 am 00:53 Mostly Cloudy 61 16.1 50 10 67 67 ESE 3 6 30.03 1017 10 16 0.00 0.00
1:53 am 01:53 Clear 58 14.4 46 7.8 65 65 Calm 30.02 1017 10 16 0.00 0.00
2:53 am 02:53 Clear 55 12.8 47 8.3 74 74 Calm 30.02 1017 10 16 0.00 0.00
3:53 am 03:53 Clear 54 12.2 47 8.3 77 77 E 5 7 30.02 1017 10 16 0.00 0.00
4:53 am 04:53 Clear 53 11.7 46 7.8 77 77 Calm 30.03 1017 10 16 0.00 0.00
5:53 am 05:53 Sunny 53 11.7 46 7.8 77 77 Calm 30.03 1017 10 16 0.00 0.00
6:53 am 06:53 Mostly Sunny 59 15 47 8.3 64 64 Calm 30.04 1017 10 16 0.00 0.00
7:53 am 07:53 Sunny 64 17.8 48 8.9 56 56 Calm 30.04 1017 10 16 0.00 0.00
8:53 am 08:53 Mostly Sunny 70 21.1 48 8.9 46 46 SSW 5 7 30.04 1017 10 16 0.00 0.00
9:53 am 09:53 Sunny 76 24.4 48 8.9 37 37 WNW 5 7 30.04 1017 10 16 0.00 0.00
10:53 am 10:53 Sunny 82 27.8 47 8.3 29 29 N 3 6 30.03 1017 10 16 0.00 0.00
11:53 am 11:53 Sunny 83 28.3 39 3.9 21 21 Calm 30.02 1017 10 16 0.00 0.00
12:53 pm 12:53 Mostly Sunny 87 30.6 42 5.6 21 21 VRB 6 9 30.01 1016 10 16 0.00 0.00
1:53 pm 13:53 Partly Cloudy 86 30 41 5 20 20 VRB 7 11 30.01 1016 10 16 0.00 0.00
2:53 pm 14:53 Mostly Sunny 88 31.1 41 5 19 19 NE 6 9 29.99 1016 10 16 0.00 0.00
3:53 pm 15:53 Mostly Sunny 86 30 42 5.6 21 21 ESE 5 7 29.99 1016 10 16 0.00 0.00
4:53 pm 16:53 Mostly Sunny 88 31.1 43 6.1 21 21 undefined N/A 29.98 1015 10 16 0.00 0.00
5:53 pm 17:53 Mostly Sunny 88 31.1 44 6.7 22 22 SE 7 11 29.96 1015 10 16 0.00 0.00
6:53 pm 18:53 Mostly Sunny 88 31.1 44 6.7 22 22 SE 3 6 29.95 1014 10 16 0.00 0.00
7:53 pm 19:53 Sunny 86 30 47 8.3 26 26 E 8 13 29.95 1014 10 16 0.00 0.00
8:53 pm 20:53 Sunny 80 26.7 48 8.9 33 33 E 8 13 29.95 1014 10 16 0.00 0.00
9:53 pm 21:53 Clear 74 23.3 51 10.6 45 45 ESE 7 11 29.97 1015 10 16 0.00 0.00
10:53 pm 22:53 Mostly Clear 72 22.2 50 10 46 46 E 9 15 29.96 1015 10 16 0.00 0.00
11:53 pm 23:53 Clear 71 21.7 48 8.9 44 44 Calm 29.96 1015 10 16 0.00 0.00

Powered by AerisWeather